Waarnemingen

Advertentie
Mijn weer
San Sebastian/Igueldo, Spanje (8027): temperatuur & dauwpunt: 16.09.2020 13:00:00 - 22.09.2020 13:00:00 (CEST)San Sebastian/Igueldo, Spanje (8027): windsnelheid: 16.09.2020 13:00:00 - 22.09.2020 13:00:00 (CEST)San Sebastian/Igueldo, Spanje (8027): windrichting: 16.09.2020 13:00:00 - 22.09.2020 13:00:00 (CEST)San Sebastian/Igueldo, Spanje (8027): luchtdruk: 16.09.2020 13:00:00 - 22.09.2020 13:00:00 (CEST)San Sebastian/Igueldo, Spanje (8027): zicht: 16.09.2020 13:00:00 - 22.09.2020 13:00:00 (CEST)
Datum & Tijd tt [°C] td [°C] ff [km/u] ff [kn] dd ppp [hPa] vv [km]
22.09.2020 13:00:00 - - - - - - -
22.09.2020 12:00:00 - - - - - - -
22.09.2020 11:00:00 18,8 16,2 5 3 NW 1016,0 30
22.09.2020 10:00:00 - - - - - - -
22.09.2020 09:00:00 - - - - - - -
22.09.2020 08:00:00 16,8 15,2 9 5 ZW 1016,4 25
22.09.2020 07:00:00 - - - - - - -
22.09.2020 06:00:00 - - - - - - -
22.09.2020 05:00:00 17,0 15,3 8 4 W 1016,8 25
22.09.2020 04:00:00 - - - - - - -
22.09.2020 03:00:00 - - - - - - -
22.09.2020 02:00:00 17,0 15,5 8 4 W 1018,8 25
22.09.2020 01:00:00 - - - - - - -
22.09.2020 00:00:00 - - - - - - -
21.09.2020 23:00:00 - - - - - - -
21.09.2020 22:00:00 - - - - - - -
21.09.2020 21:00:00 - - - - - - -
21.09.2020 20:00:00 18,0 16,7 9 5 NNW 1018,9 25
21.09.2020 19:00:00 - - - - - - -
21.09.2020 18:00:00 - - - - - - -
21.09.2020 17:00:00 18,6 16,6 15 8 NW 1019,4 30
21.09.2020 16:00:00 - - - - - - -
21.09.2020 15:00:00 - - - - - - -
21.09.2020 14:00:00 - - - - - - -
21.09.2020 13:00:00 - - - - - - -
21.09.2020 12:00:00 - - - - - - -
21.09.2020 11:00:00 17,2 16,9 11 6 W 1018,6 20
21.09.2020 10:00:00 - - - - - - -
21.09.2020 09:00:00 - - - - - - -
21.09.2020 08:00:00 17,3 16,5 16 9 W 1017,4 20
21.09.2020 07:00:00 - - - - - - -
21.09.2020 06:00:00 - - - - - - -
21.09.2020 05:00:00 17,6 14,9 13 7 WZW 1017,4 20
21.09.2020 04:00:00 - - - - - - -
21.09.2020 03:00:00 - - - - - - -
21.09.2020 02:00:00 17,4 15,0 11 6 W 1017,9 20
21.09.2020 01:00:00 - - - - - - -
21.09.2020 00:00:00 - - - - - - -
20.09.2020 23:00:00 18,0 15,6 13 7 W 1018,2 25
20.09.2020 22:00:00 - - - - - - -
20.09.2020 21:00:00 - - - - - - -
20.09.2020 20:00:00 18,7 16,5 13 7 NW 1018,0 30
20.09.2020 19:00:00 - - - - - - -
20.09.2020 18:00:00 - - - - - - -
20.09.2020 17:00:00 20,2 17,2 15 8 WNW 1015,8 30
20.09.2020 16:00:00 - - - - - - -
20.09.2020 15:00:00 - - - - - - -
20.09.2020 14:00:00 20,0 15,2 16 9 NW 1016,0 35
20.09.2020 13:00:00 - - - - - - -
20.09.2020 12:00:00 - - - - - - -
20.09.2020 11:00:00 20,0 14,1 15 8 W 1015,8 50
20.09.2020 10:00:00 - - - - - - -
20.09.2020 09:00:00 - - - - - - -
20.09.2020 08:00:00 17,8 12,0 15 8 ZW 1014,7 45
20.09.2020 07:00:00 - - - - - - -
20.09.2020 06:00:00 - - - - - - -
20.09.2020 05:00:00 18,0 13,1 15 8 ZW 1016,1 18
20.09.2020 04:00:00 - - - - - - -
20.09.2020 03:00:00 - - - - - - -
20.09.2020 02:00:00 18,2 13,7 15 8 ZW 1014,4 18
20.09.2020 01:00:00 - - - - - - -
20.09.2020 00:00:00 - - - - - - -
19.09.2020 23:00:00 18,0 13,9 16 9 WZW 1014,3 15
19.09.2020 22:00:00 - - - - - - -
19.09.2020 21:00:00 - - - - - - -
19.09.2020 20:00:00 18,6 16,9 15 8 NW 1012,6 5
19.09.2020 19:00:00 - - - - - - -
19.09.2020 18:00:00 - - - - - - -
19.09.2020 17:00:00 18,2 17,6 5 3 ZZO 1011,5 0,5
19.09.2020 16:00:00 - - - - - - -
19.09.2020 15:00:00 - - - - - - -
19.09.2020 14:00:00 20,5 14,6 18 10 ZZO 1011,1 55
19.09.2020 13:00:00 - - - - - - -
19.09.2020 12:00:00 - - - - - - -
19.09.2020 11:00:00 21,4 13,1 26 14 Z 1011,1 55
19.09.2020 10:00:00 - - - - - - -
19.09.2020 09:00:00 - - - - - - -
19.09.2020 08:00:00 19,0 14,3 21 11 Z 1010,2 50
19.09.2020 07:00:00 - - - - - - -
19.09.2020 06:00:00 - - - - - - -
19.09.2020 05:00:00 20,8 13,5 29 16 ZZO 1010,1 55
19.09.2020 04:00:00 - - - - - - -
19.09.2020 03:00:00 - - - - - - -
19.09.2020 02:00:00 21,2 13,6 13 7 W 1010,1 55
19.09.2020 01:00:00 - - - - - - -
19.09.2020 00:00:00 - - - - - - -
18.09.2020 23:00:00 20,8 15,1 24 13 Z 1010,6 55
18.09.2020 22:00:00 - - - - - - -
18.09.2020 21:00:00 - - - - - - -
18.09.2020 20:00:00 20,6 15,2 5 3 N 1011,1 55
18.09.2020 19:00:00 - - - - - - -
18.09.2020 18:00:00 - - - - - - -
18.09.2020 17:00:00 26,0 16,8 13 7 ZZO 1010,1 50
18.09.2020 16:00:00 - - - - - - -
18.09.2020 15:00:00 - - - - - - -
18.09.2020 14:00:00 25,3 15,6 22 12 W 1011,2 40
18.09.2020 13:00:00 - - - - - - -
18.09.2020 12:00:00 - - - - - - -
18.09.2020 11:00:00 23,8 13,6 39 21 ZZO 1009,9 20
18.09.2020 10:00:00 - - - - - - -
18.09.2020 09:00:00 - - - - - - -
18.09.2020 08:00:00 21,8 15,2 34 18 ZZO 1010,1 25
18.09.2020 07:00:00 - - - - - - -
18.09.2020 06:00:00 - - - - - - -
18.09.2020 05:00:00 24,8 14,3 15 8 Z 1009,5 30
18.09.2020 04:00:00 - - - - - - -
18.09.2020 03:00:00 - - - - - - -
18.09.2020 02:00:00 26,8 10,9 35 19 ZZO 1009,5 30
18.09.2020 01:00:00 - - - - - - -
18.09.2020 00:00:00 - - - - - - -
17.09.2020 23:00:00 25,9 13,4 11 6 ZO 1010,8 30
17.09.2020 22:00:00 - - - - - - -
17.09.2020 21:00:00 - - - - - - -
17.09.2020 20:00:00 26,9 17,1 13 7 OZO 1010,3 30
17.09.2020 19:00:00 - - - - - - -
17.09.2020 18:00:00 - - - - - - -
17.09.2020 17:00:00 27,6 18,0 8 4 ZZO 1011,3 30
17.09.2020 16:00:00 - - - - - - -
17.09.2020 15:00:00 - - - - - - -
17.09.2020 14:00:00 24,9 17,1 13 7 ZO 1013,0 30
17.09.2020 13:00:00 - - - - - - -
17.09.2020 12:00:00 - - - - - - -
17.09.2020 11:00:00 24,2 17,4 9 5 ZZO 1014,3 25
17.09.2020 10:00:00 - - - - - - -
17.09.2020 09:00:00 - - - - - - -
17.09.2020 08:00:00 19,9 18,7 4 2 O 1014,9 15
17.09.2020 07:00:00 - - - - - - -
17.09.2020 06:00:00 - - - - - - -
17.09.2020 05:00:00 20,0 18,1 4 2 OZO 1015,2 30
17.09.2020 04:00:00 - - - - - - -
17.09.2020 03:00:00 - - - - - - -
17.09.2020 02:00:00 20,0 18,1 4 2 ZZW 1016,8 30
17.09.2020 01:00:00 - - - - - - -
17.09.2020 00:00:00 - - - - - - -
16.09.2020 23:00:00 21,5 17,9 8 4 WNW 1017,0 30
16.09.2020 22:00:00 - - - - - - -
16.09.2020 21:00:00 - - - - - - -
16.09.2020 20:00:00 22,4 19,4 8 4 ZZO 1016,8 20
16.09.2020 19:00:00 - - - - - - -
16.09.2020 18:00:00 - - - - - - -
16.09.2020 17:00:00 24,3 20,2 4 2 NW 1016,7 20
16.09.2020 16:00:00 - - - - - - -
16.09.2020 15:00:00 - - - - - - -
16.09.2020 14:00:00 22,2 17,8 8 4 N 1018,8 15
16.09.2020 13:00:00 - - - - - - -

tt = temperatuur
td = dauwpunt
ff = windsnelheid
dd = windrichting
ppp = luchtdruk
vv = zicht

Weerstations in de omgeving